Weather in Shkunovka

Russia / Orenburg Oblast     50°46′15″N   55°22′19″E
temp.,
°C
wind,
m/s
gust,
m/s
humid.,
%
clouds,
%
prec.,
mm/h
press.,
hPa
HPBL,
m
2 march, tue
tue223:00−17w469998 0.3 102293
02:00−20w34100100 0.1 102359
05:00−22w34100100 0.1 102350
08:00−23wsw34100100 0.0 102337
11:00−18sw479799 0.1 1023220
14:00−14ssw7109398 0.0 1020346
17:00−11sw7129198 0.0 1018484
20:00−8sw71593100 0.1 1015540
3 march, wed
wed323:00−5sw91689100 0.1 1013645
02:00−5ssw91592100 0.7 1010639
05:00−3sw91596100 1.8 1009775
08:00−3sw91595100 1.2 1007761
11:00−1sw91495100 1.8 1006758
14:000sw81398100 1.3 1005767
17:000sw71298100 2.8 1004701
20:00−1wsw61098100 1.6 1004484
4 march, thu
thu423:00−1wsw5998100 2.6 1005380
02:00−5wnw71096100 0.8 1006338
05:00−7w6994100 0.9 1008436
08:00−10w51096100 0.1 1010295
11:00−10w5996100 0.2 1013306
14:00−8w61092100 0.1 1014467
17:00−8sw6109183 0.1 1015394
20:00−7sw6159496 0.1 1016588
5 march, fri
fri523:00−4sw9169198 0.2 1015862
02:00−4sw81787100 0.1 1014638
05:00−4sw10188582 0.1 1014525
08:00−5sw918877 0.0 1014531
11:00−3sw1018840 0.0 1016622
14:00−1sw11188218 0.0 1016835
17:00−1sw11188447 0.0 1016802
20:00−2sw9178695 0.0 1016710
6 march, sat
sat623:00−2sw8178495 0.0 1017507
02:00−3sw71490100 0.1 1016421
05:00−2ssw71294100 0.3 1016365
08:00−4ssw7129498 0.1 1015319
11:00−2ssw9159299 0.1 1014530
14:00+1ssw101888100 0.0 1013774
17:00+1sw101888100 0.0 1011788
20:00+1ssw10188997 0.0 1010707